Starlink 37002

operational
NORAD ID: 68164 Int'l Des: 2026-049 Owner: SPXS Country: US Constellation: starlink
LEOCIRCULARRETROGRADE

Über Starlink 37002

Beschreibung wird geladen...

Live-Position

3D-Globus wird geladen...

Nächste Überflüge

Höhenverlauf

Altitude vs Time

uPlot chart will show altitude changes over time

Zweizeiliger Elementsatz

1 68164C 26049Y 26072.93520833 .00498470 00000+0 57685-3 0 723
2 68164 97.2817 91.9369 0010265 250.6421 238.8967 16.08275686 15
Epoch: 13. März 2026 • Age: 71 hours

Aktueller Status

Höhe 264.6 km
Geschwindigkeit 7.75 km/s
Subsatellitenpunkt 68.50°N, 89.87°W
Startdatum 13. März 2026
Alter 2 days
Typ internet

Technische Details

Klassifizierung Payload
Masse 575.00 kg
Trockenmasse 530.00 kg
Gesamtmasse 575.00 kg
Länge 0.30 m
Durchmesser 4.10 m
Spannweite 29.00 m
Form Box + pan
Hersteller SPXS
Bus-Typ Starlink V2MO
Phasenstatus In Orbit
Besitzer/Staat SPXS/US

Große Konstellationen

Loading constellations...